Location: ?????
(31.7405°N, 35.1927°E)
Time: 18:31:35
(UTC+00:00)

STARLINK-1114 - Pass Details

Date: 17 February 2020
Orbit: 548 x 551 km, 53.0° (Epoch: 28 March)

Event Time Altitude Azimuth Distance (km) Brightness Sun altitude
Exits shadow 01:19:50 - 107° (ESE) 2,102 7.2 -38.8°
Enters shadow 02:25:51 -56° 223° (SW) 11,225 10.2 -24.9°
Maximum altitude 02:57:41 85° 132° (SE) 554 3.6 -18.1°
